Location: Columbia
(38.9520°N, 92.3340°W)
Time: 09:34:18
(UTC-05:00)

SJ-11-01 - Visible Passes

Search period start: 27 March 2017 00:00
Search period end: 06 April 2017 00:00
Orbit: 685 x 702 km, 98.1° (Epoch: 25 March)

Date Brightness Start Highest point End Pass type
(mag) Time Alt. Az. Time Alt. Az. Time Alt. Az.
27 Mar 5.9 20:07:56 11° E 20:10:38 16° ENE 20:13:29 10° NNE visible
27 Mar 4.9 21:46:37 42° SW 21:47:45 52° W 21:52:22 10° NNW visible
28 Mar 4.8 20:48:15 26° ESE 20:50:14 38° ENE 20:54:36 10° N visible
28 Mar 6.4 22:26:56 19° WSW 22:27:53 20° W 22:31:23 10° NW visible
29 Mar 4.3 21:28:33 44° S 21:30:03 81° WSW 21:34:48 10° NNW visible
30 Mar 5.4 20:30:10 17° ESE 20:32:41 26° ENE 20:36:34 10° NNE visible
30 Mar 5.9 22:08:52 27° SW 22:10:06 30° W 22:14:16 10° NW visible
31 Mar 4.2 21:10:30 35° SE 21:12:24 66° ENE 21:17:05 10° N visible
31 Mar 7.1 22:49:11 11° WSW 22:50:22 12° W 22:51:59 10° WNW visible
01 Apr 5.8 20:12:07 10° ESE 20:15:10 18° ENE 20:18:17 10° NNE visible
01 Apr 5.1 21:50:48 34° SSW 21:52:21 46° W 21:56:54 10° NNW visible
02 Apr 4.7 20:52:26 24° SE 20:54:48 43° ENE 20:59:15 10° N visible
02 Apr 6.6 22:31:07 16° WSW 22:32:32 18° W 22:35:44 10° NW visible
03 Apr 4.4 21:32:45 36° S 21:34:39 72° WSW 21:39:22 10° NNW visible
04 Apr 5.2 20:34:23 16° ESE 20:37:14 29° ENE 20:41:15 10° N visible
04 Apr 6.1 22:13:04 22° SW 22:14:43 27° W 22:18:44 10° NW visible
05 Apr 4.2 21:14:42 30° SSE 21:16:59 74° ENE 21:21:41 10° N visible
05 Apr 7.2 22:54:48 10° W 22:55:01 10° W 22:55:15 10° W visible
